White Plains, CT

4:44 PM EST on January 21, 2018 (GMT -0500)
Westchester County

Weather History for KHPN - December, 2013

Change the Weather History Date:

Monday, December 23, 2013

  Actual Average Record
Temperature  
Mean Temperature 49 °F -  
Max Temperature 59 °F 37 °F 62 °F (1990)
Min Temperature 39 °F 24 °F 3 °F (1989)
Degree Days  
Heating Degree Days 16    
Moisture  
Dew Point 50 °F    
Average Humidity 93    
Maximum Humidity 100    
Minimum Humidity 73    
Precipitation  
Precipitation 0.56 in - - ()
Sea Level Pressure  
Sea Level Pressure 29.98 in    
Wind  
Wind Speed 4 mph (WNW)    
Max Wind Speed 18 mph    
Max Gust Speed 29 mph    
Visibility 5 miles    
Events Fog , Rain    
Averages and records for this station are not official NWS values.
T = Trace of Precipitation, MM = Missing Value Source: NWS Daily Summary

Daily Weather History Graph

Daily Weather History Graph

Search for Another Location

Airport or City:

Trip Planner

Search our weather history database for the weather conditions in past years. The results will help you decide how hot, cold, wet, or windy it might be!

Date:

Astronomy

Dec. 23, 2013 Rise Set
Actual Time 7:17 AM EST 4:30 PM EST
Civil Twilight 6:46 AM EST 5:01 PM EST
Nautical Twilight 6:11 AM EST 5:36 PM EST
Astronomical Twilight 5:38 AM EST 6:10 PM EST
Moon 10:41 PM EST (12/23) 10:38 AM EST (12/23)
Length of Visible Light 10h 15m
Length of Day
9h 13m
Waning Gibbous, 68% of the Moon is Illuminated
Dec 23
Waning Gibbous
Dec 25
Last Quarter
Jan 1
New
Jan 7
First Quarter
Jan 15
Full

Hourly Weather History & Observations

Time (EST) Temp. Windchill Dew Point Humidity Pressure Visibility Wind Dir Wind Speed Gust Speed Precip Events Conditions
12:56 AM 57.0 °F - 53.1 °F 87% 29.95 in 10.0 mi Calm Calm - N/A   Mostly Cloudy
1:56 AM 59.0 °F - 55.0 °F 87% 29.96 in 10.0 mi Variable 3.5 mph - N/A   Mostly Cloudy
2:56 AM 57.9 °F - 55.0 °F 90% 29.95 in 10.0 mi South 3.5 mph - N/A   Scattered Clouds
3:56 AM 57.9 °F - 55.0 °F 90% 29.96 in 10.0 mi Calm Calm - N/A   Mostly Cloudy
4:56 AM 59.0 °F - 55.0 °F 87% 29.96 in 10.0 mi West 3.5 mph - N/A   Overcast
5:56 AM 57.9 °F - 55.0 °F 90% 29.97 in 10.0 mi Calm Calm - N/A   Overcast
6:56 AM 57.0 °F - 55.0 °F 93% 29.97 in 5.0 mi South 4.6 mph - 0.05 in Rain Light Rain
7:32 AM 55.4 °F - 55.4 °F 100% 29.97 in 2.0 mi Calm Calm - 0.03 in Rain Rain
7:56 AM 57.0 °F - 55.9 °F 96% 29.97 in 1.0 mi Calm Calm - 0.04 in Rain Rain
8:56 AM 57.0 °F - 57.0 °F 100% 29.96 in 1.2 mi Calm Calm - 0.07 in Rain Light Rain
9:23 AM 55.4 °F - 55.4 °F 100% 29.96 in 0.2 mi ESE 4.6 mph - 0.04 in Fog , Rain Light Rain
9:51 AM 55.4 °F - 55.4 °F 100% 29.97 in 0.2 mi SSE 5.8 mph - 0.06 in Fog , Rain Light Rain
9:56 AM 55.9 °F - 55.0 °F 97% 29.96 in 0.2 mi South 5.8 mph - 0.06 in Fog , Rain Light Rain
10:56 AM 55.9 °F - 55.0 °F 97% 29.95 in 0.2 mi SSE 4.6 mph - 0.01 in Fog , Rain Light Rain
11:18 AM 55.4 °F - 55.4 °F 100% 29.93 in 0.5 mi Calm Calm - 0.04 in Fog , Rain Light Rain
11:31 AM 55.4 °F - 55.4 °F 100% 29.91 in 1.0 mi SE 10.4 mph - 0.07 in Fog , Rain Light Rain
11:44 AM 55.4 °F - 55.4 °F 100% 29.90 in 0.5 mi SSE 8.1 mph - 0.08 in Fog , Rain Light Rain
11:56 AM 55.9 °F - 55.9 °F 100% 29.90 in 0.0 mi SSE 5.8 mph - 0.09 in Fog , Rain Light Rain
12:24 PM 57.2 °F - 55.4 °F 94% 29.89 in 1.0 mi NW 10.4 mph - 0.06 in Fog , Rain Light Rain
12:56 PM 51.1 °F - 50.0 °F 96% 29.92 in 3.0 mi NW 18.4 mph 28.8 mph 0.12 in Fog , Rain Light Rain
1:56 PM 50.0 °F - 46.9 °F 89% 29.91 in 4.0 mi NNW 13.8 mph - 0.02 in Rain Light Rain
2:56 PM 50.0 °F - 46.9 °F 89% 29.94 in 4.0 mi NNW 5.8 mph - 0.03 in Rain Light Rain
3:56 PM 50.0 °F - 46.9 °F 89% 29.99 in 4.0 mi NW 6.9 mph - 0.03 in Rain Light Rain
4:56 PM 48.9 °F - 46.9 °F 93% 30.02 in 10.0 mi West 4.6 mph - 0.02 in   Mostly Cloudy
5:56 PM 48.0 °F - 46.0 °F 93% 30.02 in 10.0 mi NW 4.6 mph - 0.01 in   Overcast
6:56 PM 46.9 °F - 45.0 °F 93% 30.05 in 10.0 mi NW 6.9 mph - 0.00 in Rain Light Rain
7:56 PM 46.0 °F 40.6 °F 43.0 °F 89% 30.05 in 10.0 mi North 11.5 mph - 0.00 in   Overcast
8:56 PM 42.1 °F 34.9 °F 37.9 °F 85% 30.11 in 10.0 mi North 13.8 mph - 0.01 in Rain Light Rain
9:56 PM 41.0 °F 33.9 °F 37.0 °F 86% 30.10 in 8.0 mi NNW 12.7 mph - 0.00 in   Overcast
10:56 PM 39.9 °F 32.9 °F 37.0 °F 89% 30.12 in 10.0 mi NNW 11.5 mph 20.7 mph N/A   Overcast
11:56 PM 39.0 °F 30.3 °F 30.9 °F 73% 30.13 in 10.0 mi NW 16.1 mph - N/A   Mostly Cloudy